Ucharal

Kazakhstan     46˚11′06″N   80˚49′48″E
temp.,
°C
wind,
m/s
gust,
m/s
humid.,
%
clouds,
%
prec.,
mm/h
press.,
hPa
HPBL,
m
1 december, tue
tue100:00−8˚ene478869 0.1 1045131
03:00−8˚ne46850 0.0 1043120
06:00−6˚ene713770 0.0 1043292
09:00−5˚ene817740 0.0 1042585
12:00−1˚ene1117660 0.0 1040908
15:00ene1116640 0.0 1039842
18:00−4˚ene712740 0.0 1040371
21:00−6˚e47790 0.0 1040197
2 december, wed
wed200:00−6˚e68790 0.0 1040253
03:00−8˚ene25790 0.0 1039159
06:00−7˚e57820 0.0 1039194
09:00−6˚e57820 0.0 1039208
12:00−2˚e610710 0.0 1037530
15:00−2˚e58780 0.0 1035361
18:00−6˚e46830 0.0 1036121
21:00−7˚e24880 0.0 103591
3 december, thu
thu300:00−8˚ese14870 0.0 103385
03:00−8˚e14840 0.0 1033105
06:00−8˚wsw127816 0.0 103230
09:00−6˚sw027295 0.0 103231
12:00−1˚e115797 0.0 103196
15:00−1˚ese2377100 0.1 1031164
18:00−2˚e2298100 0.9 103148
21:00−3˚e3398100 0.2 103174
4 december, fri
fri400:00−1˚ene3499100 0.4 1030112
03:00−1˚ene2398100 0.3 102892
06:00−1˚ene5797100 0.5 1027187
09:00−1˚ene4698100 0.4 1027204
12:00−1˚ene5798100 0.7 1026193
15:00−1˚ene3598100 0.6 1027207
18:00−1˚ne2399100 1.1 1027104
21:00−2˚n2298100 0.4 102960
5 december, sat
sat500:00−3˚n1297100 0.8 102923
03:00−3˚n1198100 0.3 102921
06:00−2˚nnw0098100 1.3 103029
09:00−1˚wsw2398100 1.3 1031183
12:00w2499100 1.9 1031314
15:00n2299100 0.4 1031133
18:00−3˚ene2298100 0.6 103228
21:00−3˚n129897 0.1 103349